Weather in Santa Monica

United States     34°01′30″N   118°28′49″W
temp.,
°C
wind,
m/s
gust,
m/s
humid.,
%
clouds,
%
prec.,
mm/h
press.,
hPa
HPBL,
m
16 september, thu
thu1623:00+17s22813 0.0 1012204
02:00+16ssw11859 0.0 1012211
05:00+16ssw118517 0.0 1011219
08:00+16ssw118343 0.1 1013354
11:00+19ssw316725 0.1 1013473
14:00+19sw436827 0.0 1011430
17:00+18sw437212 0.0 1011365
20:00+16sw33818 0.0 1011264
17 september, fri
fri1723:00+16sw21826 0.0 1012221
02:00+16sw11834 0.0 1012179
05:00+16ssw11832 0.0 1012149
08:00+17ssw11780 0.0 1014217
11:00+20ssw326613 0.0 1015402
14:00+20sw426419 0.0 1015377
17:00+19sw336816 0.0 1014308
20:00+17wsw22803 0.0 1015221
18 september, sat
sat1823:00+17sw11790 0.0 1017189
02:00+16wsw11800 0.0 1016165
05:00+16w11810 0.0 1016141
08:00+17wsw22740 0.0 1017185
11:00+20ssw21613 0.0 1018363
14:00+21sw435917 0.0 1017383
17:00+20sw44640 0.0 1015308
20:00+18sw22740 0.0 1015166
19 september, sun
sun1923:00+18s11750 0.0 1016124
02:00+17s11750 0.0 1015114
05:00+17sse01760 0.0 101480
08:00+18sse11690 0.0 1015117
11:00+21ssw21570 0.0 1015394
14:00+21ssw42571 0.0 1013419
17:00+21sw335916 0.0 1012241
20:00+18ssw11705 0.0 1012104
20 september, mon
mon2023:00+19sse11670 0.0 101286
02:00+19se11670 0.0 101135
05:00+19sse01690 0.0 101118
08:00+20sse11630 0.0 101268
11:00+23ssw21520 0.0 1012321
14:00+23ssw32567 0.0 1011302
17:00+23sw335415 0.0 1010213
20:00+20s22660 0.0 1012104